User: anonymous   Login
Location: Unspecified
(0.0000°N, 0.0000°E)
Time: 15:43:20
(UTC+00:00)
Language:

Tiangong 2 - Orbit

View from above orbital plane
View from above orbital plane
View from above satellite
View from above satellite

Ground track
Ground track

The orbit data is extracted from the following two-line orbital elements,

1 41765U 16057A   18202.49524306  .00003079  00000-0  43052-4 0  9995
2 41765  42.7838 136.3379 0005894 150.9470 180.5200 15.59078795105379
Epoch (UTC): 21 July 2018 11:53:09
Eccentricity: 0.0005894
inclination: 42.7838°
perigee height: 386 km
apogee height: 394 km
right ascension of ascending node: 136.3379°
argument of perigee: 150.9470°
revolutions per day: 15.59078795
mean anomaly at epoch: 180.5200°
orbit number at epoch: 10537

The dashed part of the orbit path shows where the satellite is in the earth's shadow,  

DLR